Flag for Canada Weather past 2 weeks in Trois-Rivieres, Quebec, Canada

Now
39 °F

Chilly.


Feels Like: 36 °F
Forecast: 34 / 57 °F
Wind: 5 mph from West

Location: Trois Rivieres

Current Time: May 23, 2015 at 12:26:50 AM

Latest Report: May 22, 2015 at 11:00 PM


Visibility: N/A

Pressure: N/A

Humidity: 51%

Dew point: 22 °F

Location of Trois-RivieresLocation

Historic Weather in Trois-Rivieres — Graph

°F

Trois-Rivieres temperature yesterday

Maximum temperature yesterday: 51 °F (at 2:00 PM)
Minimum temperature yesterday: 39 °F (at 11:00 PM)
Average temperature yesterday: 45 °F

Past Weeks' High & Low Weather Summary

 TemperatureHumidityPressure
High77 °F (May 18, 5:00 PM)100% (May 10, 2:00 AM)30.36 "Hg (May 10, 2:00 AM)
Low39 °F (May 22, 11:00 PM)22% (May 13, 7:00 PM)29.51 "Hg (May 12, 6:00 PM)
Average56 °F69%29.99 "Hg
* Reported May 7 11:00 PM — May 22 11:00 PM, Trois-Rivieres, Weather by CustomWeather, © 2015

Note: Actual official high and low records may vary slightly from our data, if they occured in-between our weather recording intervals... More about our weather records

Advertising

Trois-Rivieres weather history for previous 24 hours

 ConditionsComfort  
Time TempWeatherWind HumidityBarometerVisibility
11:00 PM
Fri, May 22
39 °FChilly.5 mph51%N/AN/A
10:00 PM40 °FChilly.3 mph49%N/AN/A
9:00 PM41 °FQuite cool.6 mph47%30.06 "HgN/A
8:00 PM43 °FQuite cool.14 mph45%30.03 "HgN/A
7:00 PM45 °FQuite cool.17 mph47%30.01 "HgN/A
6:00 PM49 °FCool.14 mph46%29.96 "HgN/A
5:00 PM48 °FCool.5 mph70%29.94 "HgN/A
4:00 PM48 °FCool.10 mph63%29.93 "HgN/A
3:00 PM51 °FCool.6 mph45%29.90 "HgN/A
2:00 PM51 °FCool.3 mph44%29.89 "HgN/A
9:00 AM42 °FQuite cool.10 mph72%29.86 "HgN/A
8:00 AM40 °FQuite cool.12 mph82%29.83 "HgN/A
7:00 AM40 °FChilly.9 mph92%29.82 "HgN/A
6:00 AM40 °FChilly.10 mph93%29.81 "HgN/A
5:00 AM45 °FCool.9 mph89%29.78 "HgN/A
4:00 AM46 °FCool.7 mph87%29.75 "HgN/A
3:00 AM46 °FCool.2 mph83%29.77 "HgN/A
2:00 AM46 °FCool.5 mph82%29.78 "HgN/A
1:00 AM47 °FCool.5 mph79%29.78 "HgN/A
12:00 AM48 °FCool.6 mph78%29.79 "HgN/A
Weather by CustomWeather, © 2015

See weather overviewHow to use our weather pages